Location: Rounton
(54.4000°N, 1.3500°W)
Time: 22:25:10
(UTC+00:00)

deb Explorer IX - Pass Details

Date: 15 December 2021
Orbit: 544 x 1082 km, 38.8° (Epoch: 27 January)

Event Time Altitude Azimuth Distance (km) Brightness Sun altitude
Rises 07:21:06 0° 234° (SW) 3,627 ? -7.9°
Reaches altitude 10° 07:24:49 10° 215° (SW) 2,574 ? -7.4°
Maximum altitude 07:28:28 16° 179° (S) 2,036 ? -7.0°
Drops below altitude 10° 07:31:51 10° 141° (SE) 2,341 ? -6.5°
Sets 07:35:00 0° 121° (ESE) 3,154 ? -6.2°
